EIN35L EINN-EIDW

Flight info

Callsign EIN35L
Flight time 0h 53m
Altitude 23000
Route AGINI3A AGINI DCT OSGAR OSGAR3R
Aircraft A339/H-SADE1E2E3GHIJ3J5M1P2RWXY/LB2D1

Departure

Time 2026-04-30 21:49
Airport Shannon Airport (EINN)

Arrival

Time 2026-04-30 22:42
Airport Dublin Airport (EIDW)
Time Latitude Longitude Altitude Speed Heading
2026-04-30 21:21 52.69393 -8.92408 27 ft 0 kts 185°
2026-04-30 21:41 52.69399 -8.92407 25 ft 3 kts 185°
2026-04-30 21:41 52.69420 -8.92404 25 ft 3 kts 185°
2026-04-30 21:41 52.69441 -8.92400 24 ft 3 kts 184°
2026-04-30 21:41 52.69462 -8.92398 29 ft 3 kts 154°
2026-04-30 21:42 52.69477 -8.92420 28 ft 3 kts 88°
2026-04-30 21:42 52.69477 -8.92443 29 ft 0 kts 94°
2026-04-30 21:44 52.69477 -8.92439 29 ft 3 kts 94°
2026-04-30 21:44 52.69480 -8.92362 26 ft 9 kts 77°
2026-04-30 21:45 52.69529 -8.92343 29 ft 7 kts 339°
2026-04-30 21:45 52.69586 -8.92432 30 ft 18 kts 317°
2026-04-30 21:45 52.69684 -8.92588 31 ft 21 kts 315°
2026-04-30 21:45 52.69794 -8.92768 27 ft 23 kts 315°
2026-04-30 21:46 52.69911 -8.92966 28 ft 24 kts 304°
2026-04-30 21:46 52.69898 -8.93123 32 ft 12 kts 234°
2026-04-30 21:46 52.69762 -8.93413 35 ft 41 kts 232°
2026-04-30 21:46 52.69586 -8.93779 43 ft 40 kts 231°
2026-04-30 21:47 52.69428 -8.94109 50 ft 23 kts 232°
2026-04-30 21:47 52.69358 -8.94211 55 ft 18 kts 207°
2026-04-30 21:47 52.69298 -8.94295 55 ft 8 kts 262°
2026-04-30 21:47 52.69323 -8.94333 54 ft 2 kts 351°
2026-04-30 21:48 52.69343 -8.94297 54 ft 6 kts 56°
2026-04-30 21:48 52.69396 -8.94180 56 ft 42 kts 52°
2026-04-30 21:48 52.69736 -8.93458 36 ft 133 kts 52°
2026-04-30 21:48 52.70469 -8.91919 309 ft 192 kts 52°
2026-04-30 21:49 52.71310 -8.90184 1384 ft 194 kts 54°
2026-04-30 21:49 52.72143 -8.88368 2482 ft 206 kts 58°
2026-04-30 21:49 52.73230 -8.86612 3178 ft 235 kts 35°
2026-04-30 21:49 52.74769 -8.85410 3817 ft 256 kts 25°
2026-04-30 21:50 52.76496 -8.84293 4497 ft 273 kts 23°
2026-04-30 21:50 52.78289 -8.83172 5388 ft 278 kts 23°
2026-04-30 21:50 52.80110 -8.82011 6302 ft 283 kts 24°
2026-04-30 21:50 52.81940 -8.80817 7153 ft 288 kts 24°
2026-04-30 21:51 52.83817 -8.79574 7986 ft 294 kts 25°
2026-04-30 21:51 52.85731 -8.78291 8879 ft 299 kts 25°
2026-04-30 21:51 52.87678 -8.76974 9752 ft 305 kts 26°
2026-04-30 21:51 52.89669 -8.75622 10468 ft 317 kts 26°
2026-04-30 21:52 52.91790 -8.74176 10785 ft 341 kts 26°
2026-04-30 21:52 52.94060 -8.72626 11171 ft 360 kts 26°
2026-04-30 21:52 52.96393 -8.71041 11963 ft 365 kts 26°
2026-04-30 21:52 52.98771 -8.69432 12707 ft 371 kts 25°
2026-04-30 21:53 53.01175 -8.67803 13468 ft 375 kts 26°
2026-04-30 21:53 53.03579 -8.66164 14196 ft 380 kts 26°
2026-04-30 21:53 53.06050 -8.64477 14783 ft 387 kts 26°
2026-04-30 21:53 53.08552 -8.62764 15491 ft 391 kts 26°
2026-04-30 21:54 53.11044 -8.60940 16135 ft 391 kts 34°
2026-04-30 21:54 53.13171 -8.58192 16774 ft 384 kts 52°
2026-04-30 21:54 53.14664 -8.54598 17481 ft 374 kts 71°
2026-04-30 21:54 53.15406 -8.50522 18193 ft 363 kts 89°
2026-04-30 21:55 53.15357 -8.46385 18863 ft 354 kts 104°
2026-04-30 21:55 53.14862 -8.42372 19465 ft 355 kts 109°
2026-04-30 21:55 53.14310 -8.38341 20078 ft 359 kts 108°
2026-04-30 21:55 53.13830 -8.34237 20722 ft 364 kts 106°
2026-04-30 21:56 53.13424 -8.30033 21343 ft 368 kts 104°
2026-04-30 21:56 53.13069 -8.25829 21965 ft 373 kts 104°
2026-04-30 21:56 53.12838 -8.22927 22390 ft 375 kts 104°
2026-04-30 21:56 53.12391 -8.17176 22943 ft 380 kts 103°
2026-04-30 21:57 53.12048 -8.12783 23068 ft 386 kts 103°
2026-04-30 21:57 53.11689 -8.08281 23078 ft 396 kts 103°
2026-04-30 21:57 53.11330 -8.03729 23078 ft 395 kts 103°
2026-04-30 21:57 53.10971 -7.99184 23078 ft 395 kts 103°
2026-04-30 21:58 53.10607 -7.94647 23081 ft 395 kts 103°
2026-04-30 21:58 53.10240 -7.90110 23081 ft 395 kts 103°
2026-04-30 21:58 53.09871 -7.85577 23081 ft 395 kts 103°
2026-04-30 21:58 53.09499 -7.81034 23080 ft 395 kts 103°
2026-04-30 21:59 53.09131 -7.76562 23080 ft 395 kts 103°
2026-04-30 21:59 53.08755 -7.72026 23082 ft 395 kts 103°
2026-04-30 21:59 53.08379 -7.67491 23083 ft 395 kts 103°
2026-04-30 22:00 53.07624 -7.58426 22900 ft 394 kts 104°
2026-04-30 22:00 53.06872 -7.49490 21630 ft 388 kts 104°
2026-04-30 22:00 53.06498 -7.45080 20806 ft 382 kts 104°
2026-04-30 22:01 53.06126 -7.40724 20329 ft 380 kts 104°
2026-04-30 22:01 53.05749 -7.36356 20146 ft 383 kts 104°
2026-04-30 22:01 53.05371 -7.31980 20087 ft 382 kts 104°
2026-04-30 22:01 53.04998 -7.27660 19888 ft 382 kts 104°
2026-04-30 22:02 53.04635 -7.23306 19602 ft 380 kts 103°
2026-04-30 22:02 53.04310 -7.18944 19086 ft 379 kts 102°
2026-04-30 22:02 53.03997 -7.14607 18549 ft 375 kts 102°
2026-04-30 22:02 53.03688 -7.10331 17976 ft 372 kts 102°
2026-04-30 22:03 53.03366 -7.06046 17458 ft 374 kts 102°
2026-04-30 22:03 53.03042 -7.01769 16928 ft 371 kts 102°
2026-04-30 22:03 53.02721 -6.97537 16414 ft 367 kts 102°
2026-04-30 22:03 53.02396 -6.93346 15900 ft 364 kts 102°
2026-04-30 22:04 53.02072 -6.89182 15392 ft 362 kts 102°
2026-04-30 22:04 53.01757 -6.85111 14886 ft 359 kts 102°
2026-04-30 22:04 53.01122 -6.76942 13875 ft 354 kts 102°
2026-04-30 22:05 53.00805 -6.72903 13355 ft 351 kts 102°
2026-04-30 22:05 53.00619 -6.68871 12858 ft 354 kts 92°
2026-04-30 22:05 53.01164 -6.64851 12355 ft 362 kts 73°
2026-04-30 22:05 53.02506 -6.61305 12083 ft 359 kts 55°
2026-04-30 22:06 53.04083 -6.58229 11855 ft 339 kts 54°
2026-04-30 22:06 53.06964 -6.52665 11474 ft 296 kts 56°
2026-04-30 22:06 53.08245 -6.50134 11180 ft 280 kts 56°
2026-04-30 22:07 53.09480 -6.47674 10645 ft 275 kts 54°
2026-04-30 22:07 53.11035 -6.45801 10019 ft 285 kts 26°
2026-04-30 22:07 53.12961 -6.45152 9441 ft 285 kts
2026-04-30 22:07 53.14878 -6.45848 8799 ft 283 kts 335°
2026-04-30 22:08 53.16613 -6.47351 8158 ft 279 kts 328°
2026-04-30 22:08 53.18292 -6.48910 7732 ft 272 kts 330°
2026-04-30 22:08 53.19883 -6.50570 7358 ft 270 kts 315°
2026-04-30 22:08 53.20912 -6.53073 7151 ft 256 kts 284°
2026-04-30 22:09 53.21109 -6.55955 7105 ft 246 kts 255°
2026-04-30 22:09 53.20595 -6.58571 7101 ft 238 kts 239°
2026-04-30 22:09 53.19874 -6.61050 7095 ft 237 kts 237°
2026-04-30 22:09 53.19150 -6.63533 7099 ft 239 kts 238°
2026-04-30 22:10 53.18539 -6.66112 7109 ft 243 kts 249°
2026-04-30 22:10 53.18437 -6.68975 7101 ft 253 kts 270°
2026-04-30 22:10 53.18771 -6.71887 7099 ft 256 kts 276°
2026-04-30 22:10 53.19129 -6.74801 7098 ft 256 kts 275°
2026-04-30 22:11 53.19809 -6.80633 7093 ft 256 kts 275°
2026-04-30 22:11 53.20419 -6.83455 7094 ft 264 kts 295°
2026-04-30 22:11 53.21569 -6.85870 7094 ft 268 kts 308°
2026-04-30 22:12 53.22401 -6.87400 7094 ft 269 kts 309°
2026-04-30 22:12 53.23654 -6.89717 7092 ft 268 kts 308°
2026-04-30 22:12 53.25126 -6.91637 7106 ft 272 kts 333°
2026-04-30 22:12 53.26955 -6.92366 7097 ft 271 kts
2026-04-30 22:13 53.28766 -6.91720 7098 ft 265 kts 29°
2026-04-30 22:13 53.30165 -6.89880 7073 ft 248 kts 59°
2026-04-30 22:13 53.30872 -6.87420 7007 ft 225 kts 81°
2026-04-30 22:13 53.31325 -6.85013 6874 ft 214 kts 72°
2026-04-30 22:14 53.32289 -6.83135 6770 ft 214 kts 41°
2026-04-30 22:14 53.33518 -6.81819 6721 ft 206 kts 37°
2026-04-30 22:14 53.34715 -6.80635 6664 ft 192 kts 37°
2026-04-30 22:14 53.35864 -6.79481 6323 ft 195 kts 38°
2026-04-30 22:15 53.37041 -6.78257 5779 ft 204 kts 38°
2026-04-30 22:15 53.38269 -6.76953 5254 ft 213 kts 39°
2026-04-30 22:15 53.39498 -6.75639 4866 ft 211 kts 39°
2026-04-30 22:15 53.40720 -6.74324 4489 ft 207 kts 39°
2026-04-30 22:16 53.41932 -6.73043 4132 ft 204 kts 39°
2026-04-30 22:16 53.43143 -6.71775 4013 ft 208 kts 39°
2026-04-30 22:17 53.46073 -6.67203 3997 ft 180 kts 89°
2026-04-30 22:17 53.46021 -6.65162 3995 ft 173 kts 105°
2026-04-30 22:17 53.45620 -6.61177 3993 ft 174 kts 106°
2026-04-30 22:18 53.45451 -6.59162 4001 ft 175 kts 104°
2026-04-30 22:18 53.45199 -6.55096 4001 ft 177 kts 102°
2026-04-30 22:19 53.44978 -6.51097 3997 ft 174 kts 102°
2026-04-30 22:19 53.44885 -6.49088 3935 ft 171 kts 102°
2026-04-30 22:19 53.44700 -6.45189 3390 ft 165 kts 103°
2026-04-30 22:20 53.44603 -6.43287 3080 ft 163 kts 104°
2026-04-30 22:20 53.44370 -6.39506 2429 ft 163 kts 104°
2026-04-30 22:20 53.44261 -6.37606 2015 ft 164 kts 104°
2026-04-30 22:21 53.44147 -6.35684 1529 ft 164 kts 103°
2026-04-30 22:21 53.44029 -6.33812 1109 ft 156 kts 101°
2026-04-30 22:21 53.43911 -6.31944 739 ft 164 kts 98°
2026-04-30 22:21 53.43781 -6.30081 399 ft 168 kts 95°
2026-04-30 22:22 53.43684 -6.28264 496 ft 144 kts 94°
2026-04-30 22:22 53.43631 -6.26717 423 ft 125 kts 94°
2026-04-30 22:22 53.43582 -6.25224 364 ft 140 kts 95°
2026-04-30 22:22 53.43448 -6.23350 948 ft 180 kts 99°
2026-04-30 22:23 53.43235 -6.21119 1568 ft 208 kts 102°
2026-04-30 22:23 53.43045 -6.18548 2383 ft 229 kts 101°
2026-04-30 22:23 53.42883 -6.15951 3863 ft 222 kts 102°
2026-04-30 22:23 53.42727 -6.13323 4879 ft 229 kts 102°
2026-04-30 22:24 53.42561 -6.10636 5425 ft 234 kts 102°
2026-04-30 22:24 53.42387 -6.07919 5743 ft 235 kts 102°
2026-04-30 22:24 53.42207 -6.05173 5927 ft 237 kts 101°
2026-04-30 22:24 53.42030 -6.02434 5997 ft 237 kts 100°
2026-04-30 22:25 53.42287 -5.99659 6002 ft 249 kts 73°
2026-04-30 22:25 53.43309 -5.97264 6012 ft 260 kts 46°
2026-04-30 22:25 53.44924 -5.95813 6012 ft 270 kts 19°
2026-04-30 22:25 53.46796 -5.95327 6016 ft 273 kts 10°
2026-04-30 22:26 53.50494 -5.94491 5452 ft 267 kts 10°
2026-04-30 22:26 53.52365 -5.94706 4825 ft 271 kts 344°
2026-04-30 22:26 53.52958 -5.95083 4613 ft 271 kts 334°
2026-04-30 22:27 53.55048 -5.98741 3623 ft 259 kts 288°
2026-04-30 22:27 53.55324 -6.01634 3205 ft 245 kts 259°
2026-04-30 22:27 53.55047 -6.07395 3008 ft 246 kts 259°
2026-04-30 22:28 53.54815 -6.13134 3008 ft 246 kts 259°
2026-04-30 22:28 53.54706 -6.16009 3008 ft 246 kts 260°
2026-04-30 22:29 53.54450 -6.24688 2991 ft 252 kts 262°
2026-04-30 22:29 53.54426 -6.27592 3000 ft 251 kts 262°
2026-04-30 22:30 53.54000 -6.39174 3004 ft 237 kts 237°
2026-04-30 22:31 53.50780 -6.45027 3000 ft 226 kts 217°
2026-04-30 22:32 53.47449 -6.50746 2984 ft 226 kts 219°
2026-04-30 22:32 53.45509 -6.54172 3007 ft 183 kts 218°
2026-04-30 22:33 53.42924 -6.58618 2983 ft 177 kts 216°
2026-04-30 22:33 53.41195 -6.61568 2998 ft 176 kts 217°
2026-04-30 22:34 53.39223 -6.66780 2997 ft 202 kts 265°
2026-04-30 22:35 53.40891 -6.70569 3022 ft 219 kts 337°
2026-04-30 22:36 53.45687 -6.67182 2987 ft 185 kts 80°
2026-04-30 22:36 53.45781 -6.65194 3008 ft 156 kts 107°
2026-04-30 22:37 53.45441 -6.59818 2987 ft 155 kts 104°
2026-04-30 22:37 53.45346 -6.58012 2924 ft 155 kts 104°
2026-04-30 22:37 53.45149 -6.54422 2669 ft 155 kts 104°
2026-04-30 22:38 53.44957 -6.50825 2423 ft 155 kts 103°
2026-04-30 22:38 53.44775 -6.47191 2157 ft 156 kts 105°
2026-04-30 22:39 53.44397 -6.45536 2031 ft 153 kts 118°
2026-04-30 22:39 53.44373 -6.40060 1599 ft 153 kts 94°
2026-04-30 22:40 53.44078 -6.35076 1012 ft 147 kts 101°
2026-04-30 22:41 53.43783 -6.29968 464 ft 149 kts 92°
2026-04-30 22:41 53.43613 -6.26493 222 ft 125 kts 94°
2026-04-30 22:42 53.43460 -6.24554 224 ft 13 kts 180°
2026-04-30 22:43 53.43362 -6.24740 223 ft 23 kts 272°
2026-04-30 22:43 53.43403 -6.25591 217 ft 17 kts 266°
2026-04-30 22:44 53.43290 -6.25644 221 ft 20 kts 152°
2026-04-30 22:45 53.42740 -6.25134 217 ft 21 kts 152°
2026-04-30 22:45 53.42562 -6.24913 222 ft 10 kts 90°
2026-04-30 22:46 53.42567 -6.24686 225 ft 0 kts 71°